Flag for Germany Weather past 2 weeks in Hilden, North Rhine-Westphalia, Germany

Now
41 °F

Clear.


Feels Like: 36 °F
Forecast: 39 / 64 °F
Wind: 7 mph from North

Location: Duesseldorf

Current Time: Apr 22, 2015 at 4:47:45 AM

Latest Report: Apr 22, 2015 at 4:20 AM


Visibility: 10 mi

Pressure: 30.42 "Hg

Humidity: 87%

Dew point: 37 °F

Location of HildenLocation

Historic Weather in Hilden — Graph

°F

Hilden temperature yesterday

Maximum temperature yesterday: 70 °F (at 3:50 PM)
Minimum temperature yesterday: 39 °F (at 6:50 AM)
Average temperature yesterday: 55 °F

Past Weeks' High & Low Weather Summary

 TemperatureHumidityPressure
High75 °F (Apr 15, 3:20 PM)100% (Apr 7, 6:50 AM)30.66 "Hg (Apr 7, 6:50 AM)
Low28 °F (Apr 7, 6:50 AM)23% (Apr 21, 3:20 PM)29.92 "Hg (Apr 15, 6:50 PM)
Average52 °F62%30.27 "Hg
* Reported Apr 7 3:20 AM — Apr 22 3:20 AM, Hilden, Weather by CustomWeather, © 2015

Note: Actual official high and low records may vary slightly from our data, if they occured in-between our weather recording intervals... More about our weather records

Advertising

Hilden weather history for previous 24 hours

 ConditionsComfort  
Time TempWeatherWind HumidityBarometerVisibility
3:20 AM
Wed, Apr 22
41 °FClear.6 mph87%30.45 "Hg10 mi
2:50 AM43 °FClear.8 mph81%30.45 "Hg10 mi
2:20 AM43 °FClear.9 mph87%30.45 "Hg10 mi
1:50 AM45 °FClear.10 mph81%30.45 "Hg10 mi
1:20 AM46 °FClear.9 mph82%30.45 "Hg10 mi
12:50 AM46 °FClear.9 mph82%30.45 "Hg10 mi
12:20 AM48 °FClear.10 mph76%30.45 "Hg10 mi
11:50 PM
Tue, Apr 21
50 °FClear.10 mph67%30.45 "Hg10 mi
11:20 PM52 °FClear.9 mph62%30.45 "Hg10 mi
10:50 PM52 °FClear.8 mph62%30.45 "Hg10 mi
10:20 PM54 °FClear.10 mph58%30.42 "Hg10 mi
9:50 PM55 °FClear.12 mph51%30.42 "Hg10 mi
9:20 PM57 °FSunny.9 mph48%30.42 "Hg10 mi
8:50 PM59 °FSunny.10 mph48%30.39 "Hg10 mi
8:20 PM61 °FSunny.10 mph45%30.39 "Hg10 mi
7:50 PM64 °FSunny.12 mph37%30.39 "Hg10 mi
7:20 PM64 °FSunny.9 mph34%30.39 "Hg10 mi
6:50 PM66 °FSunny.10 mph35%30.39 "Hg10 mi
6:20 PM68 °FSunny.12 mph28%30.39 "Hg10 mi
5:50 PM68 °FSunny.9 mph30%30.39 "Hg10 mi
5:20 PM68 °FSunny.10 mph28%30.39 "Hg10 mi
4:50 PM68 °FSunny.13 mph28%30.42 "Hg10 mi
4:20 PM68 °FSunny.12 mph26%30.42 "Hg10 mi
3:50 PM70 °FSunny.8 mph27%30.42 "Hg10 mi
3:20 PM68 °FPassing clouds.8 mph23%30.42 "HgN/A
2:50 PM68 °FSunny.9 mph28%30.42 "Hg10 mi
2:20 PM66 °FSunny.9 mph32%30.42 "Hg10 mi
1:50 PM66 °FPassing clouds.7 mph35%30.42 "HgN/A
1:20 PM66 °FSunny.8 mph37%30.45 "Hg10 mi
12:50 PM64 °FSunny.8 mph43%30.45 "Hg10 mi
12:20 PM64 °FSunny.8 mph46%30.45 "Hg10 mi
11:50 AM63 °FSunny.7 mph52%30.45 "Hg10 mi
11:20 AM61 °FSunny.5 mph52%30.45 "Hg10 mi
10:50 AM59 °FSunny.3 mph59%30.45 "Hg10 mi
10:20 AM55 °FSunny.5 mph63%30.45 "Hg10 mi
9:50 AM54 °FSunny.3 mph67%30.45 "Hg10 mi
9:20 AM52 °FSunny.3 mph67%30.45 "Hg10 mi
8:50 AM48 °FSunny.3 mph76%30.45 "Hg10 mi
8:20 AM46 °FSunny.5 mph82%30.45 "Hg10 mi
7:50 AM45 °FSunny.5 mph81%30.42 "Hg10 mi
7:20 AM41 °FClear.2 mph87%30.42 "Hg10 mi
6:50 AM39 °FClear.2 mph87%30.42 "Hg10 mi
6:20 AM41 °FClear.2 mph87%30.42 "Hg10 mi
5:20 AM41 °FClear.3 mph81%30.42 "Hg10 mi
4:50 AM41 °FClear.5 mph81%30.42 "Hg10 mi
4:20 AM41 °FClear.2 mph81%30.42 "Hg10 mi
Weather by CustomWeather, © 2015

See weather overviewHow to use our weather pages